Location: Laura�t
(43.9341°N, 0.2497°E)
Time: 00:20:37
(UTC+00:00)

Cosmos 2360 Rocket - Pass Details

Date: 03 March 2021
Orbit: 832 x 846 km, 71.0° (Epoch: 17 April)

Event Time Altitude Azimuth Distance (km) Brightness Sun altitude
Rises 20:20:12 0° 236° (WSW) 3,380 5.8 -27.5°
Reaches altitude 10° 20:22:57 10° 248° (WSW) 2,452 5.2 -27.9°
Maximum altitude 20:27:48 29° 307° (NW) 1,504 4.0 -28.8°
Drops below altitude 10° 20:32:41 10° 7° (N) 2,472 4.8 -29.6°
Sets 20:35:29 0° 19° (NNE) 3,412 5.4 -30.0°
